TimePDT,TemperatureF,Dew PointF,Humidity,Sea Level PressureIn,VisibilityMPH,Wind Direction,Wind SpeedMPH,Gust SpeedMPH,PrecipitationIn,Events,Conditions,WindDirDegrees,DateUTC
12:00 AM,50.0,30.2,47,30.37,9.0,East,9.2,-,N/A,,Clear,80,2012-10-04 07:00:00
1:00 AM,48.2,30.2,50,30.37,9.0,East,6.9,-,N/A,,Clear,80,2012-10-04 08:00:00
2:00 AM,47,31,40,30.37,,East,8.1,,,,,80,2012-10-04 09:00:00
2:00 AM,46.4,30.2,53,30.37,9.0,East,8.1,-,N/A,,Clear,90,2012-10-04 09:00:00
3:00 AM,46.4,30.2,53,30.38,9.0,ENE,6.9,-,N/A,,Clear,70,2012-10-04 10:00:00
4:00 AM,46.4,30.2,53,30.38,9.0,ENE,6.9,-,N/A,,Clear,70,2012-10-04 11:00:00
5:00 AM,46,30,41,30.38,,ENE,9.2,,,,,70,2012-10-04 12:00:00
5:00 AM,46.4,30.2,53,30.39,9.0,ENE,9.2,-,N/A,,Mostly Cloudy,70,2012-10-04 12:00:00
6:00 AM,44.6,30.2,57,30.40,9.0,ENE,6.9,-,N/A,,Clear,70,2012-10-04 13:00:00
7:00 AM,44.6,30.2,57,30.40,9.0,ENE,8.1,-,N/A,,Clear,70,2012-10-04 14:00:00
8:00 AM,44,30,46,30.41,,ENE,6.9,,,,,60,2012-10-04 15:00:00
8:00 AM,44.6,30.2,57,30.42,9.0,ENE,6.9,-,N/A,,Clear,70,2012-10-04 15:00:00
9:00 AM,44.6,30.2,57,30.42,9.0,East,6.9,-,N/A,,Clear,80,2012-10-04 16:00:00
10:00 AM,50.0,30.2,47,30.41,9.0,ENE,8.1,-,N/A,,Clear,70,2012-10-04 17:00:00
11:00 AM,55,31,27,30.39,,East,8.1,,,,,90,2012-10-04 18:00:00
11:00 AM,55.4,30.2,38,30.40,9.0,ESE,9.2,-,N/A,,Clear,110,2012-10-04 18:00:00
12:00 PM,59.0,26.6,29,30.37,9.0,East,5.8,-,N/A,,Clear,80,2012-10-04 19:00:00
1:00 PM,64.4,24.8,22,30.34,9.0,East,5.8,-,N/A,,Clear,100,2012-10-04 20:00:00
2:00 PM,67,27,12,30.31,,SSE,5.8,,,,,150,2012-10-04 21:00:00
2:00 PM,68.0,26.6,21,30.31,9.0,SSE,5.8,-,N/A,,Clear,160,2012-10-04 21:00:00
2:24 PM,68.0,26.6,21,30.30,5.0,South,5.8,-,N/A,,Haze,190,2012-10-04 21:24:00
2:25 PM,68.0,26.6,21,30.30,9.0,South,5.8,-,N/A,,Clear,180,2012-10-04 21:25:00
3:00 PM,68.0,26.6,21,30.29,9.0,SSW,4.6,-,N/A,,Clear,200,2012-10-04 22:00:00
4:00 PM,68.0,23.0,18,30.28,9.0,South,4.6,-,N/A,,Clear,180,2012-10-04 23:00:00
5:00 PM,63,29,17,30.27,,WSW,1.2,,,,,250,2012-10-05 00:00:00
5:00 PM,62.6,30.2,30,30.27,9.0,Calm,Calm,-,N/A,,Clear,0,2012-10-05 00:00:00
7:00 PM,51.8,33.8,50,30.29,9.0,East,4.6,-,N/A,,Clear,100,2012-10-05 02:00:00
8:00 PM,57,29,22,30.30,,ENE,5.8,,,,,70,2012-10-05 03:00:00
8:00 PM,57.2,28.4,33,30.30,9.0,East,8.1,-,N/A,,Clear,90,2012-10-05 03:00:00
9:00 PM,55.4,30.2,38,30.31,9.0,NE,4.6,-,N/A,,Clear,40,2012-10-05 04:00:00
10:00 PM,53.6,28.4,38,30.32,9.0,East,8.1,-,N/A,,Clear,90,2012-10-05 05:00:00
11:00 PM,53,29,27,30.34,,East,10.4,,,,,80,2012-10-05 06:00:00
11:00 PM,51.8,28.4,41,30.34,9.0,East,11.5,-,N/A,,Clear,100,2012-10-05 06:00:00